2021-117A (49812 NORAD) Tracking and Keplerian Element Data

This shows tracking and keplerian element data for the satellite.

Feedback or suggestion? Click here.




ElementValue
Catalog49812
Name2021-117A
Epoch Orbit2510
Epoch Day140.83878465
Epoch Year2022
RAAN216.8924
Inclination97.3839
Eccentricity0.0014565
Argument of Perigee79.6288
Mean Anonmoly29.417
Mean Motion15.26820475
Decay Rate0.00014532
L11 49812U 21117A 22140.83878465 .00014532 00000+0 55194-3 0 9995
L22 49812 97.3839 216.8924 0014565 79.6288 29.4170 15.26820475 25109

Live tracking and technical data element details for 2021-117A (NORAD 49812). 2021-117A can be tracked NOW for your location showing map with azimuth and elevation plus other details from your city location.

Track the satellite on the map from your city or location and see movement details for azimuth, elevation, latitude, longitude, range, height, and movement on the map or in text.







IsCatalogInMostPopularTable: catalog: 49812, numindb: 22
Update: records affected: 1



GetName: 49812 2021-117A

Hit Count: updated at: Sun, 22 May 2022 03:57:05 GMT